FLOCK 4E'-2

Last updated on Sat Nov 28 2020 00:02:02 GMT+0000 (Coordinated Universal Time)

1 46820U 20077H 20332.62449704 .00001649 00000-0 85954-4 0 9997 2 46820 97.5012 32.7939 0014212 187.5894 329.6739 15.17306051 4508
UTC large
Height (km)
Speed (km/s)
/
Latitude / Longitude
Inclination (degrees)
Orbital Period (minutes)
Azimuth
Elevation
Range (km)
Doppler Factor

Next 0 passes for location: London (51.5072 / 0.1276)

Sorry there are no passes over London.